Wind_Speed
38 39 37 34 34 36 37 36 36 37 38 39 39 40 41 42 40 40 41 41 41 42 40 39 40 39 38 36 35 35 35 34 34 33 32 31 30 29 30 31 30 30 29 28 27 27 27 27 28 29 30 32 34 35 35 35 35 36 39 40 40 39 38 37 36 36 36 37 39 40 40 40 41 41 42 42 43 44 44 44 44 43 43 43 43 43
38 39 36 35 37 37 37 37 38 38 39 40 41 43 43 43 41 41 41 41 40 41 41 40 40 39 38 37 35 35 35 34 33 32 31 31 30 28 28 28 29 28 27 28 28 28 28 28 29 30 31 31 33 34 34 34 35 35 37 39 41 41 40 38 37 37 37 37 38 39 40 41 41 41 42 42 43 43 44 45 45 45 44 44 43 43
40 38 35 36 38 38 38 38 38 39 41 42 44 45 44 42 41 41 41 41 41 41 41 42 42 40 38 37 36 34 34 35 34 31 30 30 30 29 29 30 30 30 30 30 31 31 31 31 32 33 33 33 33 33 34 34 34 35 36 38 41 43 41 38 38 38 39 39 39 39 40 41 42 42 42 43 43 44 44 45 46 47 47 47 46 45
43 39 37 38 38 39 40 40 40 41 42 43 43 43 42 40 41 41 41 42 43 43 43 42 42 40 37 37 36 34 34 36 36 35 35 34 33 32 32 33 33 33 33 33 33 34 34 34 34 33 33 32 32 32 33 34 34 35 37 38 41 44 44 39 37 37 38 39 40 41 41 42 42 43 43 44 44 44 44 45 46 47 48 48 48 47
42 39 39 40 39 40 41 41 40 41 42 42 41 41 41 41 42 42 41 42 42 43 44 44 45 43 38 37 36 35 36 38 39 39 39 39 38 37 36 36 36 35 34 34 34 36 36 36 35 34 32 31 30 32 33 35 36 37 37 39 42 45 44 40 36 35 35 37 39 40 41 42 43 43 44 45 45 45 44 44 45 46 46 47 48 49
39 37 39 40 39 40 40 39 39 40 41 40 39 40 40 40 40 41 41 42 42 43 43 44 46 46 42 40 38 38 40 40 40 40 40 41 41 41 41 41 38 36 36 37 38 38 38 37 35 34 33 32 32 33 34 35 37 38 39 40 43 45 43 38 35 34 35 37 38 39 41 41 42 43 44 45 46 47 46 46 46 46 45 45 46 46
37 36 38 39 39 39 38 38 38 39 39 38 38 38 39 39 39 40 40 42 43 44 45 44 45 47 48 45 42 42 43 42 42 42 42 44 45 46 46 44 41 39 41 42 41 40 40 39 37 36 35 34 33 34 35 37 38 39 41 42 44 45 42 37 34 33 35 38 39 40 41 42 42 43 44 45 46 48 48 49 49 48 48 47 46 45
37 37 38 37 37 37 37 37 38 38 37 37 36 37 38 38 38 39 40 42 43 44 47 45 43 47 51 47 45 45 45 44 44 45 46 47 48 48 47 45 44 44 45 45 43 41 40 39 38 37 36 35 34 35 36 37 39 41 42 43 45 44 41 37 34 33 37 42 43 43 44 44 45 45 45 46 47 48 50 51 52 52 52 51 49 48
37 37 36 36 35 35 36 37 37 37 37 37 37 37 38 38 39 40 41 42 43 45 48 44 41 47 51 48 48 48 47 47 48 49 49 48 47 46 45 44 45 46 46 45 44 42 40 38 38 38 37 36 35 36 37 39 40 42 44 46 46 44 41 40 38 36 41 47 48 48 49 48 48 48 48 48 49 50 51 53 54 55 56 55 54 53
37 37 37 36 36 36 36 36 36 36 36 36 37 39 39 40 40 41 42 43 44 47 48 44 43 48 50 48 49 50 49 50 50 50 49 47 46 45 45 45 46 47 46 46 45 44 43 41 39 38 38 38 37 37 39 41 42 44 45 47 49 48 47 46 45 43 46 52 54 53 53 53 53 53 53 52 53 53 53 54 56 57 59 59 59 58
39 39 39 39 38 38 36 36 35 35 36 36 38 39 40 41 42 43 44 45 46 48 46 45 47 49 50 49 49 50 50 50 49 48 47 46 45 45 46 47 49 49 49 48 48 48 47 45 42 40 38 38 39 40 41 43 45 47 48 50 52 54 56 56 56 55 54 57 60 59 56 56 56 57 58 58 58 58 58 58 58 59 61 62 63 63
42 42 41 40 39 38 36 36 36 36 37 38 39 40 40 42 43 44 45 45 47 47 46 47 49 50 51 50 49 50 50 49 48 47 47 47 47 48 49 50 51 51 51 51 52 52 52 51 49 46 43 42 42 43 45 47 48 50 52 54 56 58 61 62 64 65 64 64 65 64 62 59 59 60 61 62 62 62 62 62 62 62 63 64 66 67
43 42 41 40 38 37 37 38 38 39 40 40 39 40 41 42 43 43 43 44 46 46 47 49 51 52 53 51 50 50 49 49 49 48 48 49 50 52 52 53 53 54 54 54 54 54 55 55 55 53 51 50 48 48 49 50 51 53 55 57 59 61 63 65 66 68 70 68 67 67 66 65 65 66 66 67 67 67 67 66 66 66 67 67 68 70
43 42 41 40 39 39 39 39 39 40 39 38 38 39 40 41 42 43 44 47 49 49 50 52 54 55 55 53 52 51 51 52 52 51 52 53 54 55 54 55 55 55 55 55 55 55 55 56 57 56 55 55 54 53 53 53 54 56 58 59 62 64 65 67 68 69 69 69 68 69 71 71 72 71 71 72 72 73 72 71 70 70 70 70 71 72
44 43 41 40 40 40 39 38 37 37 37 38 39 40 42 43 44 46 49 52 53 53 53 55 57 57 55 53 53 53 53 54 54 54 55 55 55 55 55 55 55 55 55 55 55 55 56 57 58 58 58 58 57 57 56 57 57 58 59 61 63 66 67 69 70 71 72 72 72 73 74 75 74 74 73 74 76 77 77 77 75 74 73 72 72 73
45 44 41 38 37 37 36 36 36 37 39 41 43 44 46 47 48 50 52 53 54 55 55 56 58 58 56 54 54 55 55 54 54 54 54 54 54 54 54 54 55 55 55 55 56 56 57 58 59 60 60 60 60 60 60 60 61 60 61 62 64 66 68 70 72 74 75 76 76 76 75 75 74 74 73 74 76 78 79 80 79 77 76 75 75 75
45 43 39 35 34 35 36 38 40 42 43 45 47 47 49 50 51 52 54 54 55 58 57 56 57 58 56 55 53 54 53 52 52 52 52 52 52 53 54 54 55 56 56 56 56 57 58 59 60 61 61 62 62 62 63 63 62 61 60 61 62 65 67 68 70 72 74 76 76 76 74 73 71 70 70 72 74 77 79 81 80 79 78 78 77 77
44 42 40 38 38 40 41 43 44 45 45 46 48 49 50 52 53 53 55 56 57 60 60 56 55 56 56 55 53 51 51 51 51 50 50 51 51 52 53 54 55 56 56 57 57 58 59 60 60 61 62 62 62 63 63 63 63 62 62 62 63 66 68 68 69 71 72 74 75 75 74 73 71 70 70 71 74 76 79 81 82 82 82 81 81 81
44 43 44 44 44 44 45 46 46 46 45 46 49 50 51 52 53 54 56 58 59 61 61 57 54 54 55 54 52 51 51 51 51 51 51 51 52 53 53 54 55 56 57 58 58 59 60 61 61 61 61 61 62 63 63 64 64 64 65 65 66 69 70 71 72 73 74 74 75 75 75 74 73 73 73 73 74 76 79 81 82 83 84 84 85 86
46 47 48 48 47 47 48 49 48 47 47 49 51 52 52 52 53 54 57 59 59 60 60 58 56 55 53 53 54 53 52 53 53 53 54 54 55 55 55 56 57 58 59 60 61 61 62 62 62 62 63 63 64 65 66 67 68 68 69 69 70 71 71 72 73 74 73 74 74 74 73 71 70 70 70 71 73 75 78 80 81 82 83 84 85 87
47 48 48 48 49 50 51 51 49 50 51 53 53 53 53 53 54 55 57 58 58 59 59 59 59 57 53 55 57 56 55 55 55 54 54 55 55 56 56 57 58 59 60 61 62 63 64 64 65 65 66 67 68 69 70 71 71 71 71 71 72 72 72 73 73 74 74 75 75 75 75 75 73 73 72 73 75 76 78 80 80 81 82 82 82 83
46 48 48 51 53 54 54 53 52 53 54 54 54 53 53 54 55 57 58 57 56 57 58 58 61 59 55 56 59 57 56 55 54 52 52 53 54 56 57 58 59 60 61 63 64 65 66 66 67 67 68 68 69 70 71 71 71 71 72 73 74 75 75 75 76 77 77 78 78 78 78 79 79 79 79 80 80 81 82 82 83 83 83 83 84 84
45 46 49 53 56 56 56 56 56 56 56 55 55 53 53 55 56 56 58 57 56 58 59 59 62 61 56 56 57 56 55 54 52 52 52 54 55 57 58 59 60 62 63 64 66 67 68 69 69 70 70 70 70 71 71 72 74 75 76 77 78 78 77 78 79 80 80 80 80 81 81 81 82 83 83 84 85 86 87 88 89 89 89 89 89 89
45 46 50 54 57 58 59 60 61 59 57 56 56 54 54 56 56 57 59 60 60 61 61 61 63 62 58 56 56 56 55 54 53 52 52 54 56 57 59 60 61 62 63 64 65 67 68 69 70 70 70 71 72 73 74 75 76 78 79 80 80 81 82 83 84 85 85 86 86 86 86 87 87 87 88 89 90 91 92 93 94 95 96 96 96 96
51 54 56 58 59 60 60 61 62 60 58 57 57 57 57 57 58 60 61 63 64 64 62 62 64 63 59 57 55 54 54 52 53 53 52 53 56 58 60 60 61 63 64 66 67 69 70 70 71 71 72 73 75 76 78 79 80 81 82 83 85 86 87 88 89 90 90 90 90 90 90 90 91 91 92 93 94 94 95 96 96 97 98 98 99 99
56 58 59 59 60 60 59 60 60 59 59 59 59 58 58 59 60 62 64 66 66 65 64 64 65 63 59 57 56 55 54 54 55 56 56 57 59 61 62 63 65 66 68 69 71 72 72 73 75 76 78 79 80 80 81 82 82 83 84 85 87 88 89 89 90 91 91 91 92 92 92 92 93 93 94 94 95 95 96 96 97 97 98 98 99 99
56 57 57 57 58 58 57 58 60 60 60 60 60 59 59 60 61 63 67 68 67 66 67 65 64 63 60 58 58 58 56 56 57 58 60 61 62 63 64 66 67 69 70 71 72 73 74 76 77 78 79 80 80 81 81 82 82 83 84 85 87 87 88 89 90 91 92 93 93 94 94 94 95 95 95 96 97 98 98 99 99 100 101 101 102 102
55 56 56 56 57 58 58 60 61 61 61 61 61 59 58 60 63 66 69 68 66 67 68 64 61 63 60 56 57 58 57 57 59 60 62 63 64 65 66 67 68 69 70 72 72 73 74 75 76 77 78 79 80 80 81 82 83 84 85 86 88 89 89 90 91 92 93 94 94 95 96 96 97 98 98 99 100 101 102 102 103 104 105 105 106 107
55 57 56 57 58 59 60 61 62 62 64 63 62 60 58 60 64 67 67 66 66 68 68 63 60 62 61 58 58 58 59 60 62 63 63 64 64 65 66 67 68 69 70 71 72 73 73 74 75 76 78 79 80 81 82 83 84 86 87 88 89 90 90 91 92 92 93 94 95 96 96 97 97 98 99 99 99 100 101 101 101 102 103 104 105 106
56 58 58 59 60 60 61 63 63 64 65 65 62 60 60 61 65 66 65 64 65 66 64 61 61 62 61 59 58 58 60 63 63 62 63 63 64 65 66 67 68 69 70 71 72 73 74 75 76 77 79 80 81 82 83 84 86 87 88 89 89 90 91 92 92 93 93 94 94 94 94 94 93 93 93 93 93 93 93 93 93 93 94 95 95 96
59 60 60 61 62 63 62 63 64 65 66 65 62 60 61 63 64 63 62 63 63 63 62 61 62 62 59 57 59 60 61 62 62 62 63 64 65 65 66 68 69 70 72 73 74 75 75 76 78 79 80 81 82 83 84 85 86 87 88 89 90 91 92 93 93 93 93 93 92 91 90 89 88 86 85 85 84 84 84 84 84 84 85 85 85 86
61 61 62 62 64 65 63 63 64 64 66 66 63 61 61 62 61 60 61 61 61 62 62 62 64 62 59 58 61 62 61 61 62 63 64 65 65 66 67 69 71 72 73 74 75 76 77 78 79 80 81 82 83 84 85 86 87 88 89 89 90 90 91 91 90 90 89 88 87 86 84 83 81 80 79 78 77 77 77 77 77 78 78 78 79 80
62 62 63 63 65 65 63 64 64 64 67 68 64 59 58 58 58 59 60 59 59 61 63 63 63 62 61 62 63 62 61 62 63 64 65 66 66 67 69 70 72 73 74 75 76 76 77 79 80 81 82 82 83 84 85 85 86 87 87 87 87 87 86 85 85 83 82 81 79 78 76 75 74 74 73 73 73 73 73 74 74 75 75 76 76 77
62 62 63 64 65 65 64 63 63 66 69 67 60 55 56 56 58 59 59 58 59 61 62 63 63 63 63 64 63 62 63 64 65 65 66 67 67 68 70 72 74 74 75 75 76 77 78 79 80 81 82 82 83 83 83 83 84 84 83 82 81 80 79 78 77 76 74 73 71 70 70 70 70 70 71 71 71 72 73 73 74 75 76 76 77 77
62 62 63 64 64 64 64 63 65 69 67 61 56 56 57 57 58 59 59 59 59 60 62 63 63 63 63 63 63 64 64 65 66 67 67 68 69 70 72 73 74 75 75 76 76 77 78 79 79 80 81 81 80 80 80 79 78 77 75 74 73 72 71 70 69 68 68 67 67 68 68 69 69 69 70 71 72 73 74 75 76 76 76 76 76 75
61 63 63 63 64 64 64 64 67 68 63 58 58 59 56 56 58 60 62 60 58 60 62 63 63 63 63 64 64 65 65 66 67 68 69 70 71 72 73 74 75 75 75 76 76 77 77 78 78 78 77 77 76 75 74 72 70 68 67 66 66 65 65 64 64 64 65 65 66 67 67 68 69 70 71 73 74 75 75 75 75 74 74 73 72 72
61 62 62 62 63 63 64 65 66 67 64 59 57 56 54 56 59 62 63 61 57 59 63 63 63 64 64 65 66 66 67 68 68 69 71 72 73 74 74 75 75 75 75 76 76 76 76 75 74 73 72 71 70 68 66 65 64 63 62 62 62 61 61 61 61 62 63 64 65 66 68 69 70 72 73 74 74 74 73 72 71 71 71 70 70 71
60 60 60 60 62 62 63 65 65 67 66 59 54 53 55 58 60 62 64 62 58 59 63 63 63 65 65 65 66 67 68 70 70 71 73 75 75 75 75 75 75 76 76 75 74 73 72 70 68 67 65 64 62 61 61 60 60 60 60 60 59 59 59 59 59 60 62 63 65 67 69 70 71 72 72 72 72 71 70 70 69 70 70 71 71 70
58 58 58 59 61 61 62 64 65 67 65 58 54 55 57 59 60 61 65 64 59 59 63 64 64 65 66 66 67 68 70 72 72 72 74 76 76 75 75 75 76 75 74 72 70 67 65 63 61 59 58 57 57 57 57 57 57 57 57 57 57 56 56 57 58 60 62 64 66 68 69 70 70 70 70 69 69 69 69 69 69 70 70 69 68 67
56 57 57 58 59 58 60 63 64 64 62 58 57 57 58 60 61 63 66 64 59 59 63 65 65 65 66 68 70 71 72 74 74 74 76 77 76 75 76 75 74 73 70 67 63 60 58 56 54 53 53 53 54 54 54 54 54 55 55 55 55 55 56 58 59 61 63 65 66 67 68 68 68 68 67 67 67 67 68 69 69 68 67 65 64 62
56 56 57 57 57 58 59 62 64 63 61 58 58 59 59 62 63 63 63 61 60 62 64 65 66 67 68 70 71 72 73 74 74 75 75 75 75 75 75 73 71 68 65 60 56 53 52 51 50 50 51 51 52 52 52 52 52 53 53 54 55 56 57 59 60 62 64 65 65 66 66 65 65 66 66 66 66 67 68 68 67 65 63 61 59 56
55 56 56 57 57 59 59 61 65 65 60 57 59 61 62 63 64 62 61 61 63 65 66 66 67 68 70 72 73 73 73 74 74 74 74 74 74 73 71 69 66 62 58 53 50 48 48 48 48 49 50 50 50 51 51 52 52 53 54 55 56 57 58 60 61 62 63 64 64 63 63 63 64 65 66 66 67 66 66 65 63 61 59 56 52 49
55 56 57 57 58 59 60 62 66 65 60 58 62 64 64 65 64 63 63 65 66 66 66 67 69 70 72 73 73 73 73 73 73 74 73 73 71 69 67 64 60 55 51 47 46 46 47 47 48 49 50 50 50 51 52 53 53 54 55 56 57 58 59 60 61 62 62 62 62 62 62 63 64 65 66 66 66 66 64 62 60 57 53 49 45 43
56 55 56 56 58 60 63 64 66 65 63 64 66 66 66 66 65 64 65 66 67 67 68 69 70 71 73 73 73 74 74 73 73 72 71 69 67 64 62 59 54 50 46 44 44 45 46 48 49 50 50 51 51 52 53 53 54 54 55 56 57 58 59 60 61 61 61 61 61 61 62 64 65 65 65 65 65 64 62 59 56 51 47 43 41 40
55 54 55 57 60 63 65 66 67 65 66 68 68 66 66 65 65 65 67 67 68 69 70 71 72 72 73 73 73 74 73 72 71 69 66 64 61 59 56 53 49 46 43 43 44 45 47 48 49 50 51 52 52 53 53 54 54 55 56 57 57 58 59 60 61 61 60 60 61 62 63 63 64 64 64 64 63 61 59 56 52 45 42 40 40 39
55 55 57 60 63 65 67 68 67 67 67 68 68 66 65 65 65 66 67 68 68 70 71 73 73 72 72 72 72 72 71 69 67 64 62 59 56 54 51 49 46 44 43 43 45 46 48 49 50 51 52 52 53 54 55 55 55 56 57 57 58 59 60 60 60 60 60 60 61 62 62 62 63 63 62 62 61 59 57 53 46 41 39 40 39 38
55 56 60 63 64 67 69 69 67 67 68 67 66 65 65 65 65 66 67 68 68 70 71 71 71 70 70 70 69 69 67 65 62 59 56 54 52 50 49 47 45 43 43 45 46 48 49 50 52 53 53 54 54 55 56 56 56 57 57 58 59 59 60 60 59 59 60 60 60 60 61 61 61 61 60 59 58 56 53 49 42 39 39 40 39 38
57 58 61 65 67 69 70 68 66 67 67 67 66 65 64 63 64 66 68 68 69 69 69 68 68 67 66 66 65 63 61 58 56 53 51 49 49 49 48 46 45 44 44 45 46 48 50 51 53 54 54 55 56 56 57 57 57 58 59 59 59 59 59 59 59 59 59 59 59 59 59 60 59 59 58 57 55 52 48 44 40 38 39 40 39 39
59 61 63 65 68 70 69 65 63 64 65 64 62 62 61 62 63 65 66 66 67 67 66 65 64 63 61 60 59 57 55 51 49 48 47 47 48 48 47 45 44 43 44 45 47 48 50 52 53 54 55 56 56 57 57 57 58 59 59 59 59 59 58 58 58 58 58 58 57 57 58 57 57 57 56 54 51 48 44 42 40 38 37 39 40 41
60 61 62 65 69 70 67 62 60 61 61 58 57 59 60 61 62 64 64 65 64 63 62 61 60 58 56 54 52 50 48 46 44 45 46 46 47 46 45 43 43 43 44 46 48 49 51 52 54 54 55 55 56 57 57 58 59 59 59 58 58 58 58 58 57 57 56 56 56 56 55 55 55 55 54 52 48 43 40 40 41 39 37 37 40 42
60 61 63 68 71 68 63 58 55 56 57 55 55 58 60 61 62 63 62 61 60 59 57 56 55 53 51 48 45 44 44 43 43 44 45 45 45 44 44 44 44 45 46 47 49 50 51 53 53 54 55 56 56 57 57 58 59 59 58 57 57 57 57 57 56 55 54 54 54 54 53 53 53 53 52 49 45 40 37 37 39 40 40 39 40 41
Wind_Direction
280 280 282 285 284 282 282 283 283 283 284 286 287 288 289 290 292 293 291 290 291 291 292 291 290 290 290 288 287 286 285 285 285 285 286 284 283 283 283 285 286 288 289 291 291 291 291 291 290 289 289 289 290 291 291 290 289 287 286 284 281 277 273 270 267 266 265 266 266 267 268 268 268 268 267 265 265 264 264 263 262 262 261 260 259 259
280 280 284 285 282 281 281 281 281 282 283 285 286 288 289 291 292 291 289 290 290 290 291 291 290 291 290 290 291 290 290 289 287 287 288 289 289 289 288 289 290 291 293 294 293 293 291 290 289 288 288 288 288 288 288 287 285 285 284 283 281 279 275 272 271 268 266 264 263 263 264 265 267 267 267 266 266 265 265 265 265 264 263 261 259 259
278 280 283 281 280 280 279 278 278 280 282 284 286 287 289 291 291 289 289 290 289 289 290 291 292 293 293 294 294 294 294 294 293 292 291 290 291 292 293 293 293 294 294 294 293 292 291 290 290 290 290 290 288 285 283 281 280 281 281 281 280 278 275 272 271 271 269 268 266 264 263 264 264 266 266 266 266 266 266 266 266 266 265 264 262 260
275 278 279 278 278 278 277 277 278 280 282 283 285 287 289 289 288 288 289 289 290 291 292 292 293 294 294 294 295 295 296 296 297 296 295 295 295 296 296 295 296 296 296 294 293 293 293 294 295 293 292 290 285 282 281 278 276 277 277 278 278 276 274 271 270 270 270 270 269 268 267 266 266 266 266 267 267 267 266 266 266 266 265 265 264 263
274 276 277 275 275 275 275 277 279 280 281 282 284 286 287 286 287 288 288 289 290 292 293 294 294 294 294 293 294 295 294 295 295 297 298 299 300 301 300 300 299 298 296 295 296 297 297 297 297 294 291 287 280 279 280 278 275 275 276 277 276 273 270 269 269 271 273 273 272 270 269 267 267 266 266 266 267 266 265 264 263 263 263 263 263 262
274 275 274 273 273 273 274 276 278 278 279 281 283 284 284 285 286 287 288 289 290 290 292 293 293 295 295 293 293 293 292 293 295 296 298 299 300 301 301 301 300 298 296 296 298 298 298 298 296 294 292 288 280 278 280 278 275 274 274 274 273 269 266 265 267 271 275 276 276 275 272 269 267 265 264 264 264 264 264 263 262 260 259 259 260 260
273 272 270 271 272 273 275 277 277 277 279 280 280 281 282 283 284 285 286 288 288 290 291 291 292 294 293 293 293 292 292 294 296 297 298 298 300 300 300 300 299 297 297 297 297 296 296 296 296 294 291 288 283 279 278 277 275 273 272 270 268 264 261 261 264 269 274 275 276 276 275 273 270 266 264 262 261 261 261 261 261 260 258 257 256 256
272 271 271 272 273 275 276 277 276 278 280 280 279 280 281 282 283 284 284 285 287 289 290 291 293 293 292 292 293 292 293 295 296 296 297 297 297 298 298 298 297 296 295 296 295 295 294 294 293 292 290 287 284 280 276 274 274 273 271 271 267 259 256 259 263 268 274 276 275 275 275 274 272 269 266 263 261 260 259 259 259 259 258 257 255 255
272 272 273 273 274 275 274 275 277 279 279 279 280 280 281 281 281 283 283 285 287 288 289 291 292 291 291 293 293 293 294 295 295 296 297 297 297 296 297 296 295 294 295 295 295 294 293 291 290 290 288 285 282 277 274 272 270 270 269 269 266 259 256 261 265 268 272 274 275 275 275 274 273 271 268 266 263 261 260 259 259 259 258 257 256 255
274 274 275 276 275 274 273 275 276 276 277 278 279 280 281 281 282 283 284 286 286 287 289 291 290 288 289 290 290 291 293 294 294 296 296 297 297 296 295 294 293 293 294 294 294 293 292 290 288 287 285 283 279 273 270 268 268 267 266 264 263 260 259 262 266 267 269 270 272 273 272 272 272 271 269 268 266 264 262 261 260 260 259 258 257 257
275 276 277 277 276 275 276 275 275 274 276 277 278 279 280 281 283 283 284 286 286 287 290 289 286 285 287 288 289 289 290 291 293 294 295 295 295 294 293 293 292 292 292 291 292 292 291 290 288 285 280 277 274 271 267 264 263 263 262 261 261 260 260 262 265 266 266 266 266 268 269 269 269 269 269 268 267 265 264 262 261 260 259 259 258 258
277 277 277 277 277 278 277 276 277 277 278 277 277 278 279 280 281 282 283 284 285 287 288 286 284 284 285 288 289 289 291 292 292 293 294 293 292 291 290 289 289 289 288 288 287 287 286 286 285 283 279 274 271 269 267 265 263 262 261 260 260 260 261 262 264 265 265 263 261 262 265 268 268 267 267 267 266 265 264 263 262 261 260 259 259 259
278 278 278 278 278 278 277 278 279 279 278 278 278 278 279 279 280 281 283 284 284 285 285 284 284 284 286 288 288 289 290 290 289 290 290 289 288 287 286 286 285 284 284 284 283 283 282 281 281 280 279 276 272 269 267 266 265 264 262 261 260 260 262 263 263 264 263 263 260 258 260 265 268 268 267 267 266 265 264 263 262 261 260 259 259 259
279 279 279 278 278 278 278 278 278 277 277 277 277 278 278 279 281 283 285 284 283 284 284 284 283 283 285 287 287 287 286 286 286 286 286 285 284 283 282 282 282 282 282 282 282 282 281 281 281 280 279 277 275 272 268 266 264 264 263 263 262 261 262 262 262 263 262 263 263 261 261 264 266 267 267 267 267 266 265 264 263 262 261 260 259 259
278 277 276 276 277 277 277 276 275 276 277 277 278 278 279 281 283 284 283 282 283 283 282 282 281 282 284 286 286 285 284 284 285 285 284 282 282 281 282 282 281 281 281 281 281 280 280 280 281 281 280 279 277 275 272 269 267 265 264 263 262 262 262 262 262 263 263 264 265 266 266 266 266 266 265 265 265 266 266 266 265 264 263 262 262 261
276 275 275 274 273 273 273 272 273 276 277 278 279 279 281 283 283 281 280 280 281 279 279 280 279 281 283 284 285 284 284 285 284 283 282 281 281 282 282 281 281 280 280 279 279 279 278 278 278 279 279 279 278 277 276 274 273 271 269 266 264 263 263 263 263 264 265 266 266 267 267 267 266 265 263 262 261 262 263 265 266 267 267 267 266 266
275 275 274 271 270 270 271 274 276 277 278 278 280 281 282 281 279 278 278 278 278 276 278 280 280 281 283 283 283 283 282 282 281 280 280 279 280 280 279 279 278 278 278 277 277 276 276 276 276 277 277 277 277 277 277 276 276 274 273 270 268 266 265 265 265 266 266 267 268 268 268 268 267 265 263 261 259 259 260 262 264 265 267 268 268 269
276 275 273 271 270 271 273 275 275 276 277 278 279 279 278 277 277 277 277 277 277 276 277 279 279 280 281 282 283 282 280 280 278 278 278 277 277 277 276 277 276 276 276 275 275 275 276 276 276 276 276 277 277 277 276 276 274 273 271 269 267 267 268 269 269 269 269 269 269 269 270 270 269 266 263 261 259 258 258 259 260 262 264 265 266 267
274 274 273 273 273 274 275 274 274 276 277 276 275 275 275 276 276 277 277 278 277 277 278 279 279 279 281 283 283 281 279 279 279 279 278 277 277 277 276 275 275 275 275 276 276 276 277 277 276 276 276 275 275 275 275 274 273 272 270 268 267 268 270 271 272 273 273 272 271 271 272 272 271 270 268 265 263 261 259 258 258 259 260 261 263 264
272 273 273 274 275 275 275 276 277 278 277 274 274 275 275 276 276 276 277 278 278 279 280 281 280 281 283 284 283 281 279 279 278 277 277 277 276 276 275 274 274 275 275 275 275 275 275 275 275 275 275 275 275 275 274 274 273 272 271 270 269 270 271 273 275 276 276 275 275 275 275 274 272 271 269 268 267 266 265 264 263 263 263 263 263 263
271 271 272 273 274 275 277 278 279 277 276 276 276 277 278 278 278 278 277 278 280 280 280 281 280 281 283 282 280 279 278 277 276 275 275 275 274 273 272 272 273 274 274 273 273 273 273 273 273 274 274 275 275 275 275 275 274 273 273 272 271 272 273 274 275 276 276 275 275 276 275 274 272 270 268 268 268 269 269 269 269 269 268 268 268 267
274 274 274 274 275 278 280 279 277 276 276 277 277 278 280 279 279 279 279 280 280 279 280 280 280 281 282 280 278 278 277 276 275 274 273 272 271 271 271 271 272 272 271 271 271 271 272 272 272 272 273 274 274 274 274 274 273 273 274 274 274 274 274 275 276 276 276 276 276 275 275 274 273 272 271 270 270 271 271 271 270 270 269 269 269 269
277 276 276 276 279 281 280 279 278 277 277 278 279 280 280 279 279 280 280 280 278 277 278 278 278 280 281 279 277 277 276 275 274 273 272 271 271 271 271 271 271 271 271 271 271 271 271 272 272 272 272 272 272 273 273 274 274 274 275 276 276 277 277 278 278 278 278 277 277 276 275 275 274 273 273 272 272 272 272 272 272 271 271 270 270 270
273 271 272 275 277 277 276 276 277 277 279 280 281 280 279 279 280 280 279 279 277 275 277 277 276 279 280 278 277 276 274 273 274 273 272 271 271 271 271 271 271 271 271 271 271 272 272 272 272 272 273 273 274 274 275 275 275 276 276 277 277 278 278 279 279 279 278 278 277 276 276 275 275 274 274 273 273 273 273 273 272 272 272 271 271 271
267 267 269 271 273 273 274 275 276 278 280 280 279 279 279 279 279 279 279 278 277 276 276 276 276 279 279 278 276 274 273 274 274 274 273 272 272 272 272 271 271 272 272 273 273 273 273 273 273 273 274 274 275 276 276 277 277 277 277 277 277 278 278 279 279 279 279 279 279 278 278 277 277 276 276 275 275 275 274 274 274 273 273 272 272 271
263 264 266 268 269 271 273 274 275 277 277 276 277 278 278 278 278 278 278 276 276 277 276 276 278 278 277 276 275 274 274 275 275 274 273 273 274 274 273 273 273 274 275 275 275 275 275 274 274 275 275 276 277 277 278 278 278 278 279 279 279 279 279 280 280 280 280 280 280 280 279 279 278 278 277 277 276 276 276 275 275 274 274 274 273 273
264 265 266 267 268 270 271 272 272 272 273 273 274 275 276 277 277 276 275 274 276 277 276 276 277 276 275 276 276 276 276 276 276 276 275 275 276 276 276 276 277 277 277 277 277 277 277 277 277 278 278 279 279 280 280 280 280 280 280 280 280 280 281 281 281 281 281 281 281 281 281 280 280 279 279 278 278 278 277 277 276 276 276 275 275 274
266 267 268 269 269 270 270 269 270 271 272 272 273 274 274 274 274 273 273 274 275 275 274 276 276 275 275 277 277 277 278 277 277 277 277 277 278 279 279 279 279 279 278 279 279 279 279 279 280 280 280 281 281 282 282 282 282 282 282 282 282 282 282 282 282 282 282 282 282 282 282 282 282 282 281 281 281 280 280 279 279 279 278 278 277 277
267 268 269 269 269 269 269 269 270 271 271 271 272 274 274 273 272 271 272 274 275 274 274 276 275 274 275 276 277 278 279 279 278 278 279 280 281 281 280 280 280 280 280 280 281 281 281 282 282 282 283 283 283 283 283 283 283 283 283 282 282 282 282 282 282 282 282 283 283 283 283 283 282 282 282 282 281 281 281 281 280 280 280 279 279 279
267 268 269 268 268 269 268 269 270 270 270 271 272 274 274 271 270 271 274 275 275 275 277 278 276 275 276 278 279 279 279 279 280 280 281 281 281 281 281 281 282 282 282 282 283 283 284 284 284 284 284 284 284 283 283 283 283 283 283 282 282 282 282 282 282 282 282 282 282 282 282 282 282 282 282 282 282 282 282 281 281 281 281 280 280 280
269 270 270 270 270 269 269 270 269 269 270 270 272 274 273 271 271 273 274 274 274 276 277 277 276 276 278 280 279 278 278 279 281 282 282 281 281 282 282 283 283 283 283 284 284 284 284 284 284 284 284 284 284 284 283 283 283 283 283 283 283 283 282 283 283 283 283 283 283 283 283 283 283 283 283 283 283 283 283 282 282 282 281 281 281 280
271 271 271 272 271 271 272 270 270 271 270 269 273 277 275 272 273 273 272 272 273 275 276 276 276 279 280 279 278 279 280 281 282 282 282 282 282 283 283 283 283 283 283 284 284 284 285 285 285 285 285 285 285 284 284 284 284 284 284 284 284 284 284 284 284 284 284 284 284 284 284 285 285 285 285 285 285 285 285 284 284 284 283 283 282 282
272 272 272 271 270 271 271 270 270 270 268 271 279 281 275 273 273 271 270 272 273 275 276 277 279 281 281 279 279 281 282 282 282 281 282 282 283 284 284 284 284 284 284 284 285 285 286 286 286 286 286 286 286 286 285 285 285 285 285 285 286 286 286 285 285 285 286 286 287 287 288 288 288 288 288 289 289 288 288 288 287 287 287 286 286 285
272 272 271 270 270 270 270 270 269 266 268 276 283 278 272 271 271 271 272 273 273 275 277 279 280 281 281 281 282 282 282 282 282 282 283 284 284 285 285 285 285 285 286 286 286 286 286 286 286 286 287 287 287 287 287 287 287 287 287 287 287 286 286 287 287 288 289 290 290 291 291 291 291 291 291 291 291 291 291 290 290 290 290 290 289 289
272 271 270 270 270 269 269 268 266 266 271 278 277 271 270 272 272 273 273 273 274 276 278 279 280 280 281 281 282 282 282 282 283 284 285 286 286 287 287 287 287 287 287 287 287 287 287 287 287 287 287 287 287 287 287 287 287 287 287 286 286 287 287 288 289 290 291 292 292 292 292 292 292 292 292 292 292 292 292 292 292 292 292 291 291 291
270 269 269 269 269 269 269 268 268 270 273 273 272 272 274 274 274 275 274 273 275 278 278 278 279 280 280 281 281 282 283 284 285 286 288 288 289 289 288 288 288 288 288 288 288 288 288 288 288 288 288 288 287 287 287 287 287 286 286 286 287 287 288 290 290 291 291 292 292 292 292 292 292 292 292 292 292 292 293 293 293 293 292 292 292 292
267 267 267 268 268 269 270 270 270 271 272 272 275 278 277 276 275 275 275 275 276 277 278 279 280 280 280 281 282 283 285 286 287 288 290 290 290 290 290 290 290 290 290 290 289 289 289 289 289 288 288 287 287 287 286 286 286 286 286 287 287 288 289 290 291 291 291 291 291 291 292 292 292 292 292 293 293 293 293 293 293 293 293 293 293 293
266 266 266 267 268 268 269 270 271 272 273 276 278 277 277 277 277 278 278 277 277 278 279 279 279 280 280 281 283 285 286 287 289 291 291 291 291 291 291 291 291 291 291 291 290 290 290 290 289 288 287 287 286 286 286 285 286 286 286 287 288 289 290 290 291 291 291 291 291 292 292 292 293 293 293 293 293 294 294 294 294 295 295 295 295 295
266 266 266 266 267 269 270 272 273 274 276 279 278 277 277 278 278 279 278 279 280 281 279 278 279 280 282 283 284 286 287 289 290 292 291 291 292 292 292 291 291 291 291 291 292 291 291 290 288 287 287 286 285 285 285 285 285 286 287 288 289 290 290 291 291 291 291 292 292 292 293 293 293 293 293 294 294 295 295 296 296 297 297 297 297 297
265 265 265 266 268 270 272 273 274 276 278 280 280 279 279 278 277 277 279 282 284 280 278 280 281 282 284 285 286 287 289 290 291 292 291 291 292 292 292 291 291 291 292 292 292 291 290 288 287 286 285 284 284 284 284 285 286 287 288 289 290 290 291 291 291 292 292 293 294 294 294 294 294 295 295 295 296 296 297 297 298 299 299 299 299 299
264 265 266 268 269 271 272 274 275 277 279 282 282 280 279 278 277 278 282 285 284 281 281 282 283 284 285 286 287 289 290 291 292 291 291 291 292 291 291 291 291 292 293 293 291 290 288 287 286 285 284 284 284 285 286 286 287 288 289 289 290 290 291 291 292 293 294 295 295 296 296 296 296 296 296 297 297 298 298 299 300 301 301 300 299 299
265 266 267 269 271 272 273 275 276 277 279 282 281 280 279 279 281 283 284 284 283 283 284 284 284 286 286 287 288 290 290 291 291 291 290 290 290 290 290 291 292 293 293 292 290 288 287 286 285 284 284 284 285 286 287 287 288 289 289 289 290 290 292 293 294 295 296 297 297 297 297 297 297 298 298 299 299 299 301 302 302 302 301 300 299 300
265 266 268 271 273 275 275 275 276 279 281 280 279 280 281 282 284 285 285 284 284 285 285 285 286 287 288 289 290 290 290 290 290 290 289 289 290 290 292 293 294 293 292 291 289 287 286 285 284 284 284 285 285 286 287 287 288 289 289 290 291 292 293 295 296 297 298 298 298 298 298 299 299 299 300 300 301 301 302 302 302 301 300 298 299 300
266 268 271 273 274 274 274 275 277 280 281 280 280 281 283 283 285 286 285 285 285 285 286 287 287 288 288 289 289 289 290 290 289 289 289 290 291 292 293 294 293 292 291 289 286 285 284 283 283 283 284 285 286 286 287 288 289 289 290 291 292 294 295 297 298 299 299 299 299 300 300 300 300 301 301 301 302 302 303 302 302 300 298 297 299 301
269 271 272 273 273 273 274 276 278 280 281 281 281 282 283 285 286 285 285 285 286 287 287 287 287 287 288 288 289 289 290 290 290 290 291 292 293 293 293 293 293 292 290 287 285 284 283 283 283 284 284 286 287 287 288 289 290 291 292 293 295 296 297 299 299 300 300 300 300 301 301 301 301 301 301 302 302 303 302 301 300 297 296 297 299 301
271 272 272 272 273 275 276 277 279 280 281 281 282 284 284 285 286 286 286 287 287 287 287 287 288 289 289 289 290 290 290 290 291 291 292 292 293 292 292 292 292 291 289 286 285 285 285 285 285 285 286 287 288 289 290 291 292 293 294 295 297 298 299 299 300 300 301 301 301 301 301 301 301 301 301 302 302 302 301 300 297 295 295 298 299 301
271 273 274 274 275 276 276 278 280 282 282 282 283 283 284 285 286 287 286 286 287 287 287 288 289 289 289 289 289 290 290 290 291 292 292 292 291 291 291 291 290 290 288 286 286 285 285 286 286 287 288 289 290 291 292 293 293 294 295 297 298 299 299 300 300 301 301 301 301 300 300 300 301 301 301 302 302 302 300 298 295 295 297 299 300 301
272 273 274 275 276 277 278 280 282 283 282 282 283 284 285 286 286 286 285 286 286 287 287 288 288 288 288 288 288 289 289 290 291 291 291 290 289 289 289 289 290 288 286 286 285 285 285 286 287 288 289 290 291 292 292 294 294 295 296 298 298 299 299 299 300 300 300 300 300 299 300 300 300 301 301 302 302 301 299 296 295 296 299 300 300 301
272 273 275 277 277 277 279 281 282 282 281 281 282 284 286 286 285 284 285 286 286 286 287 287 286 286 287 287 287 288 289 290 290 289 288 288 288 288 289 290 289 287 286 285 285 285 286 286 287 288 289 290 291 292 293 294 295 295 296 298 298 298 299 299 300 300 299 299 299 299 299 300 300 301 301 302 302 300 297 295 295 296 298 300 301 302
273 275 278 278 277 277 280 282 281 279 279 280 282 284 284 284 283 284 285 286 286 287 287 286 285 284 285 286 287 289 289 289 288 287 286 286 287 288 290 290 288 286 285 285 285 285 286 286 287 288 289 290 291 292 293 294 294 295 296 297 298 298 299 299 299 299 298 298 298 298 299 299 300 301 302 302 300 297 295 297 299 298 297 298 301 303
275 277 278 277 278 280 281 282 280 279 280 282 283 283 283 283 284 285 285 286 286 286 285 284 284 285 285 286 287 287 287 287 287 286 286 287 289 291 291 290 289 288 287 286 287 287 287 287 289 289 290 291 291 292 293 293 294 295 296 297 297 298 298 299 298 297 297 297 297 297 298 300 301 302 302 302 299 294 291 295 299 302 302 301 302 303
Height
5820 5819 5820 5823 5823 5821 5820 5820 5819 5818 5817 5816 5816 5816 5816 5816 5818 5818 5815 5814 5813 5812 5812 5813 5811 5811 5811 5811 5811 5810 5809 5809 5808 5807 5806 5806 5805 5805 5804 5802 5802 5801 5801 5800 5800 5799 5799 5798 5797 5797 5796 5795 5794 5793 5793 5792 5792 5791 5790 5789 5789 5788 5787 5786 5786 5786 5785 5785 5785 5785 5785 5784 5784 5784 5784 5784 5783 5783 5783 5782 5782 5782 5781 5781 5781 5781
5815 5814 5817 5818 5817 5816 5816 5816 5815 5814 5813 5813 5812 5812 5812 5813 5813 5812 5811 5810 5810 5808 5808 5808 5807 5807 5807 5806 5806 5805 5804 5804 5803 5802 5802 5800 5800 5800 5799 5798 5797 5797 5797 5796 5795 5795 5794 5794 5793 5792 5792 5791 5790 5789 5788 5788 5787 5787 5786 5785 5784 5783 5782 5782 5782 5781 5781 5780 5780 5780 5779 5779 5779 5779 5779 5779 5778 5778 5778 5777 5777 5777 5776 5776 5776 5775
5809 5811 5814 5813 5812 5811 5811 5811 5811 5810 5810 5809 5809 5808 5808 5809 5808 5807 5806 5805 5805 5805 5804 5803 5802 5802 5802 5801 5801 5800 5799 5799 5798 5798 5797 5796 5795 5794 5794 5793 5792 5792 5792 5791 5790 5789 5789 5789 5788 5787 5787 5786 5786 5785 5784 5783 5783 5782 5782 5781 5780 5779 5778 5777 5777 5777 5777 5776 5776 5775 5775 5774 5774 5773 5773 5773 5773 5773 5772 5772 5772 5771 5771 5771 5770 5770
5805 5808 5809 5808 5807 5807 5806 5806 5807 5807 5806 5805 5805 5804 5804 5804 5803 5802 5802 5800 5799 5799 5798 5797 5797 5797 5797 5796 5796 5795 5794 5794 5793 5792 5792 5791 5790 5790 5789 5788 5787 5786 5785 5784 5784 5783 5783 5782 5782 5781 5781 5781 5780 5780 5779 5779 5778 5778 5777 5776 5775 5774 5773 5772 5772 5772 5772 5771 5771 5771 5770 5770 5769 5769 5768 5768 5767 5767 5767 5766 5766 5766 5765 5765 5765 5764
5801 5804 5804 5802 5802 5801 5801 5801 5802 5802 5801 5801 5801 5800 5800 5799 5798 5797 5797 5795 5795 5793 5792 5792 5790 5792 5793 5791 5791 5791 5789 5789 5789 5787 5786 5785 5784 5784 5783 5782 5781 5780 5779 5778 5778 5777 5776 5776 5776 5775 5775 5775 5775 5774 5774 5774 5774 5773 5773 5772 5771 5769 5768 5767 5766 5766 5766 5766 5766 5766 5765 5765 5765 5764 5764 5763 5762 5762 5761 5761 5760 5760 5760 5759 5759 5758
5799 5800 5798 5797 5797 5796 5796 5797 5797 5796 5796 5796 5796 5796 5795 5794 5794 5793 5792 5791 5790 5789 5788 5787 5785 5786 5787 5786 5787 5786 5784 5784 5784 5783 5782 5780 5779 5778 5777 5776 5775 5774 5773 5773 5772 5771 5770 5770 5770 5769 5769 5769 5769 5769 5769 5769 5768 5768 5768 5767 5766 5764 5763 5762 5761 5760 5761 5761 5761 5760 5760 5759 5759 5758 5758 5758 5757 5757 5756 5755 5754 5754 5754 5753 5753 5753
5795 5794 5793 5792 5792 5792 5792 5792 5792 5791 5791 5792 5792 5791 5790 5790 5789 5788 5788 5787 5785 5785 5784 5783 5782 5782 5781 5780 5781 5780 5778 5778 5779 5778 5777 5776 5774 5773 5771 5770 5769 5768 5768 5767 5767 5766 5765 5764 5764 5764 5764 5764 5763 5764 5764 5763 5763 5762 5762 5761 5760 5759 5758 5757 5755 5755 5755 5756 5755 5755 5754 5754 5753 5753 5752 5752 5751 5751 5750 5750 5749 5748 5747 5747 5747 5746
5789 5789 5788 5788 5788 5788 5788 5787 5786 5786 5787 5787 5786 5786 5785 5785 5784 5783 5783 5781 5781 5780 5779 5779 5779 5777 5775 5775 5774 5773 5773 5773 5773 5771 5771 5770 5769 5767 5765 5764 5763 5763 5762 5761 5761 5760 5760 5759 5759 5758 5758 5758 5758 5758 5758 5758 5757 5757 5756 5756 5755 5754 5753 5752 5750 5749 5749 5750 5750 5749 5749 5748 5748 5747 5746 5746 5745 5745 5744 5744 5743 5742 5741 5741 5740 5739
5784 5784 5784 5784 5784 5784 5783 5782 5782 5782 5781 5781 5781 5780 5780 5779 5779 5778 5777 5776 5776 5775 5774 5775 5775 5772 5770 5770 5768 5766 5767 5767 5766 5765 5764 5763 5763 5761 5760 5759 5757 5757 5756 5755 5754 5754 5754 5754 5754 5753 5753 5753 5753 5752 5752 5752 5752 5751 5751 5750 5750 5748 5747 5746 5745 5743 5743 5744 5744 5743 5742 5742 5741 5740 5740 5739 5739 5738 5738 5737 5736 5736 5735 5734 5733 5732
5778 5778 5779 5779 5779 5779 5778 5778 5778 5777 5776 5776 5775 5774 5774 5773 5773 5773 5772 5771 5771 5769 5771 5772 5770 5767 5766 5766 5764 5762 5762 5761 5760 5759 5758 5757 5756 5755 5754 5753 5752 5750 5749 5748 5747 5747 5747 5747 5748 5748 5747 5747 5747 5746 5746 5746 5745 5745 5745 5744 5743 5742 5741 5740 5739 5738 5737 5737 5737 5736 5735 5734 5734 5733 5732 5732 5731 5731 5731 5730 5730 5729 5728 5727 5726 5725
5773 5773 5773 5773 5773 5773 5773 5773 5772 5772 5772 5771 5770 5769 5768 5767 5767 5767 5766 5766 5764 5764 5767 5766 5764 5762 5761 5761 5760 5758 5757 5756 5754 5754 5753 5751 5750 5749 5748 5747 5745 5744 5743 5742 5741 5740 5740 5740 5740 5740 5741 5741 5740 5740 5739 5739 5738 5738 5738 5737 5736 5735 5734 5733 5732 5731 5730 5730 5730 5729 5728 5727 5726 5725 5724 5723 5722 5722 5722 5721 5721 5721 5720 5719 5718 5717
5767 5767 5767 5767 5767 5767 5767 5767 5767 5766 5766 5765 5764 5764 5763 5762 5762 5761 5761 5761 5759 5759 5761 5759 5757 5756 5756 5757 5756 5754 5752 5750 5749 5748 5747 5745 5744 5743 5742 5741 5739 5738 5737 5736 5735 5735 5734 5733 5733 5733 5733 5733 5733 5733 5732 5731 5731 5730 5729 5729 5728 5727 5726 5725 5724 5723 5722 5722 5721 5720 5720 5718 5718 5717 5716 5715 5713 5712 5712 5711 5711 5711 5711 5710 5709 5708
5761 5762 5762 5762 5762 5762 5761 5761 5761 5760 5759 5759 5759 5758 5757 5755 5755 5755 5756 5755 5754 5755 5754 5752 5751 5749 5750 5752 5751 5750 5749 5745 5743 5743 5741 5740 5738 5737 5735 5734 5733 5732 5730 5730 5729 5729 5728 5727 5727 5726 5726 5725 5725 5725 5724 5724 5723 5722 5721 5720 5719 5719 5718 5717 5715 5714 5713 5713 5712 5712 5711 5711 5710 5708 5707 5706 5704 5703 5702 5701 5700 5700 5700 5699 5699 5699
5756 5756 5756 5756 5756 5756 5755 5755 5755 5754 5754 5754 5754 5753 5751 5750 5749 5750 5750 5748 5748 5750 5748 5746 5744 5742 5745 5747 5746 5745 5744 5740 5739 5738 5736 5734 5732 5730 5729 5727 5726 5725 5724 5723 5722 5721 5720 5719 5718 5718 5717 5717 5716 5716 5716 5715 5715 5714 5713 5712 5711 5710 5709 5708 5707 5706 5704 5704 5704 5703 5702 5702 5702 5701 5699 5697 5695 5694 5692 5691 5690 5689 5688 5688 5688 5688
5751 5751 5751 5752 5751 5750 5750 5750 5749 5748 5748 5748 5748 5747 5746 5746 5745 5744 5743 5741 5741 5743 5743 5740 5736 5736 5740 5741 5740 5739 5737 5734 5733 5731 5729 5727 5725 5723 5721 5720 5718 5717 5716 5716 5715 5714 5713 5712 5710 5709 5708 5707 5707 5706 5706 5706 5706 5705 5705 5704 5703 5701 5700 5699 5697 5696 5695 5694 5694 5693 5693 5692 5692 5692 5690 5689 5687 5685 5683 5681 5680 5679 5678 5677 5677 5676
5744 5745 5746 5746 5745 5745 5744 5744 5744 5744 5743 5742 5743 5742 5741 5742 5740 5736 5736 5735 5734 5734 5736 5735 5730 5730 5733 5734 5733 5731 5729 5728 5726 5724 5722 5719 5717 5716 5714 5712 5711 5710 5709 5708 5707 5706 5705 5704 5703 5701 5700 5699 5698 5697 5696 5696 5695 5695 5695 5694 5693 5692 5691 5689 5688 5687 5686 5685 5684 5683 5682 5682 5681 5681 5681 5679 5678 5676 5674 5672 5670 5669 5668 5667 5666 5666
5737 5738 5740 5740 5739 5739 5738 5738 5738 5738 5737 5735 5736 5737 5736 5735 5733 5730 5729 5730 5728 5724 5726 5729 5725 5724 5726 5726 5727 5726 5723 5722 5719 5717 5715 5713 5711 5710 5707 5706 5704 5702 5702 5701 5700 5699 5697 5697 5695 5694 5693 5691 5690 5689 5688 5687 5686 5685 5684 5683 5682 5682 5681 5680 5678 5677 5676 5675 5673 5672 5671 5670 5670 5670 5670 5669 5668 5666 5665 5663 5661 5660 5659 5658 5657 5656
5731 5731 5733 5734 5732 5732 5732 5732 5731 5732 5731 5730 5730 5730 5729 5727 5726 5725 5722 5722 5721 5715 5717 5722 5722 5720 5718 5718 5720 5719 5716 5715 5712 5711 5709 5707 5705 5703 5701 5699 5697 5696 5694 5693 5692 5691 5690 5689 5688 5686 5685 5684 5682 5681 5679 5678 5677 5676 5675 5674 5673 5671 5670 5669 5668 5667 5666 5664 5663 5661 5660 5659 5659 5659 5658 5658 5657 5656 5655 5653 5652 5650 5649 5648 5647 5646
5726 5725 5725 5726 5725 5725 5726 5725 5725 5726 5726 5725 5723 5722 5722 5721 5720 5719 5716 5714 5713 5708 5707 5713 5715 5715 5713 5711 5711 5710 5708 5708 5706 5704 5702 5700 5699 5697 5694 5692 5690 5689 5687 5686 5685 5684 5682 5681 5680 5678 5677 5675 5674 5672 5671 5669 5668 5667 5665 5664 5663 5661 5660 5659 5657 5657 5655 5654 5652 5651 5650 5649 5648 5647 5647 5646 5646 5645 5644 5643 5642 5641 5640 5639 5637 5636
5719 5718 5718 5719 5719 5718 5717 5717 5719 5720 5718 5717 5715 5715 5715 5715 5713 5712 5709 5706 5705 5701 5700 5702 5704 5708 5709 5706 5701 5699 5700 5701 5699 5698 5697 5694 5692 5689 5687 5684 5683 5682 5681 5680 5678 5676 5675 5673 5671 5670 5668 5667 5665 5663 5662 5660 5659 5657 5656 5655 5653 5652 5650 5649 5647 5647 5645 5644 5643 5641 5640 5639 5638 5637 5636 5635 5634 5633 5633 5632 5631 5631 5630 5628 5627 5626
5712 5712 5713 5713 5712 5710 5709 5711 5713 5712 5709 5708 5709 5708 5708 5707 5706 5704 5701 5701 5698 5694 5693 5692 5692 5699 5705 5700 5693 5691 5692 5693 5692 5693 5691 5688 5685 5682 5679 5677 5676 5675 5674 5672 5670 5668 5667 5665 5663 5662 5660 5658 5656 5654 5652 5650 5648 5647 5646 5645 5643 5642 5640 5639 5638 5637 5636 5635 5634 5633 5631 5630 5629 5628 5627 5625 5624 5623 5622 5621 5620 5619 5618 5617 5615 5614
5706 5705 5706 5706 5705 5704 5703 5703 5704 5703 5702 5701 5702 5702 5702 5699 5697 5694 5692 5695 5693 5686 5685 5683 5680 5689 5698 5693 5686 5686 5686 5685 5685 5686 5684 5681 5677 5674 5672 5671 5669 5668 5665 5663 5662 5660 5658 5657 5655 5653 5651 5649 5647 5645 5643 5641 5639 5638 5636 5635 5633 5632 5630 5629 5628 5627 5626 5625 5624 5623 5622 5621 5620 5618 5617 5615 5613 5612 5611 5610 5609 5609 5608 5607 5604 5603
5699 5698 5698 5698 5698 5697 5694 5693 5694 5694 5694 5694 5695 5696 5695 5691 5690 5687 5683 5686 5685 5679 5678 5676 5670 5677 5687 5685 5681 5681 5679 5678 5677 5677 5675 5672 5669 5666 5664 5663 5661 5659 5657 5655 5653 5651 5649 5648 5646 5644 5642 5640 5638 5636 5634 5632 5631 5629 5627 5625 5623 5621 5620 5619 5618 5616 5615 5614 5613 5612 5611 5610 5609 5607 5606 5604 5602 5600 5599 5598 5597 5596 5595 5595 5593 5592
5693 5692 5691 5691 5692 5690 5687 5685 5684 5685 5687 5688 5687 5688 5687 5684 5683 5680 5675 5675 5674 5671 5672 5668 5663 5669 5676 5676 5675 5674 5671 5670 5669 5668 5666 5663 5660 5659 5656 5654 5652 5650 5649 5647 5645 5643 5641 5639 5637 5635 5634 5632 5630 5628 5626 5624 5622 5620 5617 5615 5613 5611 5610 5608 5607 5605 5604 5602 5601 5600 5599 5598 5597 5595 5594 5592 5590 5589 5587 5585 5584 5582 5581 5581 5580 5579
5687 5685 5684 5684 5683 5682 5680 5678 5676 5678 5680 5680 5679 5680 5679 5678 5676 5672 5668 5665 5661 5662 5666 5661 5657 5662 5668 5667 5666 5664 5662 5663 5661 5658 5657 5655 5652 5650 5648 5646 5645 5642 5641 5639 5636 5635 5633 5631 5629 5627 5625 5623 5621 5619 5617 5615 5613 5610 5608 5606 5603 5602 5599 5597 5595 5593 5591 5589 5588 5587 5586 5585 5584 5583 5581 5579 5577 5575 5573 5571 5570 5568 5567 5566 5566 5565
5679 5677 5677 5676 5675 5673 5673 5672 5670 5671 5672 5670 5671 5672 5672 5671 5669 5664 5660 5654 5651 5653 5656 5655 5653 5655 5659 5658 5656 5654 5654 5654 5652 5649 5649 5647 5645 5642 5640 5638 5637 5635 5633 5630 5628 5626 5624 5623 5621 5619 5616 5614 5612 5609 5607 5605 5603 5600 5598 5595 5593 5591 5588 5586 5583 5580 5578 5576 5575 5573 5572 5571 5570 5568 5566 5564 5562 5560 5558 5556 5555 5554 5552 5551 5550 5550
5669 5668 5669 5668 5666 5666 5666 5665 5663 5663 5664 5663 5663 5665 5665 5663 5660 5657 5649 5645 5647 5646 5645 5649 5649 5645 5648 5652 5647 5644 5645 5645 5642 5641 5639 5638 5636 5634 5632 5630 5628 5626 5624 5621 5619 5617 5615 5613 5611 5608 5606 5604 5601 5599 5597 5595 5592 5590 5587 5584 5581 5579 5577 5575 5572 5569 5566 5564 5562 5560 5558 5557 5555 5553 5551 5549 5547 5545 5543 5541 5540 5539 5537 5535 5534 5533
5659 5658 5659 5659 5658 5658 5657 5656 5655 5655 5655 5655 5655 5658 5660 5656 5651 5647 5640 5640 5643 5638 5635 5643 5644 5635 5638 5645 5639 5633 5635 5635 5633 5632 5630 5629 5628 5626 5624 5622 5619 5617 5614 5612 5610 5608 5606 5603 5601 5598 5596 5593 5591 5589 5586 5584 5581 5578 5575 5572 5569 5567 5566 5563 5560 5557 5554 5551 5549 5547 5545 5543 5540 5538 5536 5534 5532 5530 5528 5526 5525 5523 5521 5519 5517 5515
5650 5649 5651 5651 5649 5649 5649 5647 5647 5646 5645 5646 5647 5650 5652 5649 5642 5636 5634 5636 5636 5628 5627 5636 5635 5627 5630 5635 5631 5627 5625 5623 5623 5623 5622 5621 5620 5618 5615 5612 5610 5608 5605 5603 5601 5598 5597 5594 5591 5588 5586 5583 5581 5578 5576 5572 5569 5566 5563 5560 5558 5555 5553 5551 5548 5546 5543 5540 5537 5535 5533 5530 5527 5524 5522 5519 5517 5515 5513 5511 5510 5508 5506 5504 5502 5500
5642 5641 5642 5641 5640 5641 5641 5639 5639 5638 5635 5636 5640 5642 5642 5639 5633 5630 5631 5632 5626 5619 5620 5625 5621 5619 5624 5625 5622 5620 5617 5613 5613 5615 5615 5614 5611 5608 5605 5603 5601 5599 5596 5594 5591 5589 5587 5585 5581 5578 5575 5573 5571 5568 5565 5561 5558 5555 5552 5549 5546 5544 5541 5539 5536 5534 5531 5528 5526 5523 5520 5517 5514 5511 5509 5506 5504 5502 5500 5498 5496 5494 5492 5490 5488 5485
5634 5633 5632 5632 5631 5631 5632 5631 5630 5629 5626 5627 5631 5633 5632 5628 5627 5628 5627 5624 5618 5613 5614 5613 5607 5609 5618 5617 5611 5610 5609 5607 5606 5606 5606 5604 5602 5600 5597 5594 5592 5589 5587 5585 5582 5580 5578 5575 5571 5568 5565 5562 5559 5556 5553 5550 5546 5543 5540 5537 5534 5531 5529 5526 5524 5521 5518 5516 5513 5510 5507 5504 5502 5499 5496 5494 5492 5490 5488 5485 5483 5481 5479 5477 5475 5472
5626 5624 5624 5624 5620 5620 5623 5622 5620 5619 5616 5616 5622 5626 5624 5620 5621 5622 5618 5615 5612 5608 5605 5601 5598 5602 5609 5607 5601 5600 5601 5600 5599 5598 5596 5595 5593 5591 5589 5586 5582 5580 5578 5575 5573 5571 5568 5565 5561 5557 5554 5550 5547 5544 5541 5538 5534 5531 5528 5525 5522 5519 5516 5514 5511 5508 5505 5502 5500 5497 5494 5492 5489 5487 5484 5482 5480 5477 5475 5473 5471 5468 5466 5465 5462 5459
5617 5616 5615 5614 5610 5611 5613 5612 5612 5610 5604 5605 5616 5621 5618 5614 5613 5610 5608 5608 5606 5600 5595 5592 5592 5595 5597 5594 5592 5593 5592 5591 5590 5588 5587 5586 5585 5582 5580 5576 5573 5571 5569 5566 5564 5562 5558 5554 5550 5546 5542 5539 5535 5532 5529 5525 5522 5519 5515 5512 5509 5506 5503 5501 5498 5495 5492 5490 5487 5485 5482 5480 5477 5475 5473 5470 5467 5465 5463 5461 5459 5456 5454 5452 5450 5447
5609 5608 5606 5603 5601 5602 5603 5603 5602 5597 5593 5601 5612 5614 5608 5606 5603 5600 5600 5601 5598 5592 5588 5586 5586 5587 5585 5583 5584 5584 5583 5581 5579 5579 5578 5577 5575 5573 5570 5566 5562 5560 5559 5557 5554 5551 5548 5544 5540 5535 5531 5527 5523 5520 5516 5513 5510 5507 5504 5500 5497 5495 5492 5489 5487 5484 5482 5479 5476 5474 5471 5469 5467 5465 5462 5459 5457 5454 5452 5449 5447 5444 5442 5439 5437 5435
5601 5600 5597 5594 5593 5591 5593 5594 5588 5583 5590 5601 5604 5601 5599 5598 5595 5591 5590 5591 5590 5586 5582 5579 5578 5578 5576 5575 5575 5573 5572 5571 5570 5569 5568 5566 5565 5563 5559 5555 5552 5550 5549 5546 5543 5540 5537 5533 5529 5525 5520 5516 5512 5509 5505 5502 5499 5496 5493 5490 5487 5485 5483 5481 5479 5476 5473 5470 5467 5464 5462 5459 5457 5455 5452 5450 5447 5444 5442 5439 5436 5433 5430 5428 5425 5422
5593 5590 5588 5586 5584 5582 5583 5582 5576 5575 5585 5594 5593 5590 5592 5590 5586 5581 5578 5581 5585 5581 5574 5571 5571 5570 5568 5566 5565 5564 5563 5562 5561 5560 5558 5555 5554 5552 5548 5545 5542 5539 5537 5536 5533 5529 5526 5522 5518 5514 5510 5506 5502 5498 5495 5492 5490 5487 5484 5481 5479 5478 5476 5474 5472 5469 5466 5463 5459 5456 5453 5451 5449 5446 5443 5440 5437 5435 5432 5429 5426 5422 5419 5417 5414 5410
5585 5581 5580 5578 5575 5574 5573 5572 5570 5568 5573 5584 5587 5584 5583 5579 5575 5570 5566 5572 5580 5575 5566 5564 5563 5560 5559 5558 5556 5555 5554 5552 5552 5551 5547 5543 5541 5539 5537 5534 5531 5528 5526 5524 5521 5518 5514 5511 5507 5503 5499 5496 5492 5489 5486 5484 5481 5479 5476 5474 5472 5470 5469 5467 5464 5461 5458 5455 5451 5448 5445 5443 5440 5437 5434 5431 5428 5425 5422 5419 5416 5412 5409 5406 5404 5400
5575 5573 5573 5570 5567 5567 5564 5562 5562 5558 5562 5576 5582 5577 5572 5569 5565 5560 5555 5560 5571 5568 5558 5556 5554 5551 5550 5550 5548 5547 5544 5542 5543 5543 5536 5531 5530 5528 5525 5523 5520 5517 5514 5512 5509 5506 5503 5499 5496 5493 5489 5486 5483 5481 5478 5476 5473 5471 5469 5467 5465 5464 5462 5459 5457 5454 5450 5447 5443 5440 5437 5434 5431 5428 5425 5421 5418 5415 5412 5409 5406 5402 5399 5395 5393 5389
5566 5565 5565 5561 5559 5560 5558 5554 5553 5551 5555 5568 5571 5566 5564 5561 5556 5551 5544 5549 5562 5560 5548 5545 5546 5543 5542 5541 5539 5538 5536 5533 5534 5533 5525 5519 5519 5518 5514 5511 5509 5506 5503 5501 5498 5495 5492 5489 5486 5483 5481 5478 5475 5473 5471 5468 5466 5464 5462 5460 5458 5457 5455 5452 5449 5446 5442 5439 5436 5432 5429 5425 5422 5419 5415 5412 5409 5406 5403 5399 5396 5393 5389 5385 5381 5379
5558 5556 5555 5553 5553 5555 5551 5545 5544 5544 5550 5558 5558 5555 5554 5550 5547 5543 5538 5542 5550 5547 5538 5537 5537 5535 5534 5532 5529 5529 5528 5525 5524 5521 5515 5510 5509 5507 5503 5500 5498 5495 5493 5491 5488 5485 5483 5480 5477 5475 5473 5470 5468 5466 5464 5462 5459 5457 5455 5453 5451 5450 5447 5444 5441 5438 5434 5431 5427 5424 5420 5417 5413 5409 5406 5403 5400 5397 5393 5389 5386 5383 5379 5375 5371 5368
5551 5549 5547 5547 5548 5548 5544 5538 5535 5537 5545 5549 5545 5543 5542 5538 5536 5537 5537 5536 5534 5531 5530 5530 5527 5525 5525 5522 5519 5519 5518 5515 5513 5509 5505 5502 5500 5496 5492 5490 5488 5486 5484 5482 5479 5476 5474 5471 5469 5467 5465 5462 5460 5459 5457 5455 5453 5451 5449 5447 5445 5443 5440 5437 5434 5430 5426 5422 5419 5415 5411 5408 5404 5400 5397 5394 5391 5388 5384 5380 5377 5373 5369 5366 5363 5360
5544 5542 5540 5540 5541 5540 5537 5533 5527 5529 5541 5543 5533 5529 5530 5527 5526 5529 5530 5526 5521 5520 5521 5519 5517 5517 5515 5511 5510 5510 5508 5506 5502 5498 5495 5492 5490 5487 5483 5481 5479 5477 5475 5473 5470 5468 5465 5463 5461 5459 5457 5455 5453 5452 5450 5448 5446 5444 5442 5440 5438 5435 5432 5429 5425 5422 5418 5414 5410 5407 5403 5399 5395 5391 5388 5385 5382 5379 5375 5371 5368 5364 5361 5358 5355 5353
5537 5535 5534 5535 5535 5531 5528 5525 5519 5522 5533 5532 5522 5519 5520 5518 5518 5520 5517 5513 5512 5511 5510 5508 5508 5507 5503 5500 5500 5498 5497 5496 5493 5489 5485 5482 5480 5478 5475 5473 5471 5469 5467 5464 5462 5460 5458 5456 5454 5451 5450 5448 5446 5445 5443 5441 5439 5437 5434 5432 5430 5427 5424 5421 5417 5413 5409 5405 5402 5398 5394 5391 5387 5383 5379 5376 5372 5370 5367 5363 5360 5357 5353 5351 5349 5347
5529 5530 5530 5530 5527 5521 5517 5516 5515 5517 5521 5518 5512 5511 5510 5508 5510 5510 5505 5502 5501 5501 5500 5499 5498 5496 5493 5491 5489 5487 5486 5485 5482 5479 5476 5472 5471 5469 5467 5465 5463 5460 5459 5457 5455 5453 5451 5448 5446 5444 5442 5441 5439 5437 5436 5434 5432 5430 5427 5425 5422 5419 5416 5412 5408 5405 5401 5397 5394 5390 5386 5382 5378 5374 5371 5367 5364 5361 5358 5355 5353 5350 5347 5344 5343 5341
5522 5525 5525 5521 5516 5512 5509 5509 5510 5512 5511 5506 5502 5502 5501 5500 5500 5499 5495 5493 5491 5490 5489 5487 5486 5485 5483 5480 5478 5477 5475 5473 5471 5468 5466 5464 5462 5460 5458 5457 5455 5453 5452 5450 5447 5446 5444 5441 5439 5437 5435 5434 5432 5430 5428 5426 5424 5422 5419 5417 5414 5411 5408 5404 5400 5397 5393 5389 5386 5382 5378 5374 5370 5366 5363 5359 5356 5353 5350 5348 5346 5344 5341 5338 5337 5335
5516 5517 5515 5511 5508 5504 5501 5501 5502 5504 5502 5496 5492 5492 5492 5490 5490 5487 5484 5483 5482 5480 5477 5474 5473 5474 5471 5468 5467 5466 5464 5463 5461 5459 5457 5455 5454 5452 5450 5449 5448 5446 5445 5443 5440 5438 5436 5434 5432 5429 5428 5426 5424 5422 5420 5417 5415 5413 5411 5408 5406 5403 5399 5396 5392 5389 5385 5381 5378 5374 5370 5367 5363 5359 5356 5352 5349 5346 5342 5340 5340 5338 5335 5333 5331 5329
5511 5510 5505 5502 5500 5496 5493 5494 5496 5494 5490 5485 5483 5482 5482 5482 5481 5478 5474 5472 5471 5469 5466 5464 5463 5462 5460 5458 5456 5455 5454 5453 5452 5450 5449 5447 5445 5444 5443 5442 5441 5440 5438 5436 5433 5431 5428 5426 5424 5422 5420 5418 5415 5413 5411 5409 5407 5405 5402 5400 5398 5394 5391 5387 5384 5381 5377 5373 5370 5367 5363 5360 5356 5353 5349 5346 5342 5339 5335 5333 5332 5332 5329 5326 5325 5323
5504 5502 5497 5494 5491 5486 5484 5488 5489 5483 5477 5474 5473 5473 5473 5473 5471 5468 5464 5463 5462 5459 5457 5455 5453 5451 5450 5449 5447 5445 5445 5445 5444 5442 5441 5439 5437 5436 5435 5434 5434 5433 5431 5429 5426 5424 5421 5419 5417 5414 5412 5410 5408 5405 5403 5400 5398 5396 5394 5392 5389 5386 5383 5379 5376 5373 5370 5366 5363 5359 5356 5352 5349 5346 5343 5339 5336 5333 5330 5327 5327 5326 5323 5320 5318 5317
5494 5492 5491 5488 5483 5478 5477 5481 5480 5471 5465 5464 5465 5466 5465 5463 5460 5457 5455 5453 5452 5450 5449 5448 5445 5443 5442 5440 5439 5438 5437 5437 5437 5434 5432 5431 5430 5428 5427 5427 5426 5425 5423 5422 5419 5417 5414 5412 5409 5407 5405 5402 5400 5398 5395 5392 5390 5388 5386 5384 5381 5378 5375 5372 5369 5366 5362 5359 5356 5353 5349 5346 5342 5339 5336 5333 5330 5327 5324 5321 5320 5320 5318 5315 5312 5310
5485 5486 5486 5478 5471 5469 5471 5472 5469 5460 5454 5457 5461 5460 5457 5454 5451 5448 5447 5445 5443 5442 5440 5438 5437 5436 5435 5434 5433 5431 5429 5429 5429 5426 5425 5424 5423 5421 5421 5420 5419 5417 5416 5414 5412 5409 5407 5404 5402 5400 5397 5395 5393 5390 5387 5384 5382 5380 5378 5375 5372 5370 5367 5364 5361 5358 5355 5352 5349 5346 5343 5339 5336 5332 5329 5326 5324 5322 5320 5316 5313 5312 5312 5310 5307 5304
5479 5480 5478 5467 5460 5461 5463 5461 5456 5450 5447 5450 5454 5452 5449 5447 5444 5441 5440 5438 5436 5433 5431 5429 5428 5428 5428 5427 5426 5424 5422 5422 5421 5418 5417 5416 5415 5415 5414 5412 5410 5409 5407 5406 5404 5402 5399 5397 5395 5392 5390 5387 5385 5383 5380 5377 5374 5372 5370 5368 5364 5362 5359 5356 5354 5351 5348 5345 5342 5339 5336 5333 5330 5326 5323 5320 5318 5316 5316 5314 5310 5306 5304 5303 5302 5299